FW7556 Weather Reports


time (UTC)temp
F
wind
direction
speed
knots
gust
knots
rain 1hr
in
rain 24hr
in
rain mn
in
humidity
%
barometer
mb
20260906112002 71 35 0.0 1.7 0.00 0.00 0.00 90 1014.0
20260906111501 71 36 1.7 1.7 0.00 0.00 0.00 90 1013.9
20260906110955 71 300 0.0 1.7 0.00 0.00 0.00 90 1013.8
20260906110450 71 0 0.0 0.0 0.00 0.00 0.00 90 1013.8
20260906105949 72 15 0.0 0.0 0.00 0.00 0.00 90 1014.0
20260906105445 72 15 0.0 0.0 0.00 0.00 0.00 90 1013.9
20260906104941 72 270 0.0 0.0 0.00 0.00 0.00 90 1013.7
20260906104440 72 66 0.0 0.0 0.00 0.00 0.00 90 1013.6
20260906103939 72 325 0.0 0.0 0.00 0.00 0.00 90 1013.6
20260906103437 72 14 0.0 1.7 0.00 0.00 0.00 90 1013.7
20260906102933 72 82 0.0 0.9 0.00 0.00 0.00 90 1013.6
20260906102432 72 0 0.0 2.6 0.00 0.00 0.00 90 1013.6
20260906101927 72 341 1.7 1.7 0.00 0.00 0.00 90 1013.4
20260906101423 72 23 1.7 1.7 0.00 0.00 0.00 90 1013.4
20260906100918 72 0 0.0 0.9 0.00 0.00 0.00 90 1013.4
20260906100417 72 35 0.0 1.7 0.00 0.00 0.00 90 1013.1
20260906095912 72 311 0.0 2.6 0.00 0.00 0.00 90 1013.1
20260906095408 72 35 0.0 2.6 0.00 0.00 0.00 90 1013.0
20260906094902 72 90 0.0 1.7 0.00 0.00 0.00 90 1013.2
20260906094357 72 0 0.0 0.0 0.00 0.00 0.00 90 1013.1
20260906093853 72 33 0.0 1.7 0.00 0.00 0.00 90 1012.9
20260906093349 72 71 0.0 0.0 0.00 0.00 0.00 90 1013.2
20260906092848 72 71 0.0 0.0 0.00 0.00 0.00 90 1012.9
20260906092343 72 270 0.0 0.0 0.00 0.00 0.00 90 1013.0
20260906091839 72 279 0.0 0.0 0.00 0.00 0.00 90 1012.9
20260906091335 72 7 0.0 0.9 0.00 0.00 0.00 90 1012.9
20260906090831 72 352 0.0 0.0 0.00 0.00 0.00 90 1012.8
20260906090330 72 66 0.0 0.0 0.00 0.00 0.00 90 1012.7
20260906085831 72 0 0.9 0.9 0.00 0.00 0.00 90 1012.9
20260906085329 72 16 1.7 1.7 0.00 0.00 0.00 90 1012.5
20260906084824 72 0 0.0 0.9 0.00 0.00 0.00 90 1012.6
20260906084324 72 6 0.0 0.9 0.00 0.00 0.00 90 1012.5
20260906083819 72 0 0.0 0.9 0.00 0.00 0.00 90 1012.4
20260906083315 72 63 1.7 1.7 0.00 0.00 0.00 90 1012.3
20260906082809 72 0 0.0 0.9 0.00 0.00 0.00 90 1012.4
20260906082306 71 353 0.0 0.0 0.00 0.00 0.00 90 1012.3
20260906081759 71 15 0.0 2.6 0.00 0.00 0.00 90 1012.1
20260906081255 71 353 0.0 0.0 0.00 0.00 0.00 90 1012.4
20260906080752 71 0 0.9 1.7 0.00 0.00 0.00 90 1012.1
20260906080248 71 0 0.0 1.7 0.00 0.00 0.00 90 1012.1
20260906075747 70 0 0.9 1.7 0.00 0.00 0.00 90 1012.1
20260906075247 70 0 0.0 0.0 0.00 0.00 0.00 90 1011.9
20260906074743 70 0 0.0 1.7 0.00 0.00 0.00 90 1012.0
20260906074242 70 352 0.0 1.7 0.00 0.00 0.00 90 1012.2
20260906073741 70 0 0.0 0.0 0.00 0.00 0.00 90 1012.0
20260906073236 70 0 0.0 0.0 0.00 0.00 0.00 90 1012.3
20260906072732 70 8 0.0 0.0 0.00 0.00 0.00 90 1012.3
20260906072228 70 8 0.0 0.0 0.00 0.00 0.00 90 1012.3
20260906071724 70 15 0.0 0.9 0.00 0.00 0.00 89 1012.4
20260906071224 70 14 0.0 0.0 0.00 0.00 0.00 89 1012.4
20260906070720 70 8 0.0 0.9 0.00 0.00 0.00 89 1012.2
20260906070216 70 15 0.0 0.0 0.00 0.00 0.00 89 1012.3
20260906065715 70 15 0.0 0.0 0.00 0.00 0.00 89 1012.4
20260906065211 70 15 0.0 0.9 0.00 0.00 0.00 89 1012.4
20260906064706 70 0 0.0 0.0 0.00 0.00 0.00 89 1012.3
20260906064201 70 0 0.0 0.0 0.00 0.00 0.00 89 1012.5
20260906063656 70 0 0.0 0.0 0.00 0.00 0.00 89 1012.6
20260906063152 71 8 0.0 0.0 0.00 0.00 0.00 89 1012.6
20260906062648 71 8 0.0 0.0 0.00 0.00 0.00 89 1012.5
20260906062146 71 8 0.0 0.0 0.00 0.00 0.00 89 1012.4
20260906061643 71 8 0.0 0.0 0.00 0.00 0.00 89 1012.4
20260906061143 71 8 0.0 0.0 0.00 0.00 0.00 89 1012.5
20260906060639 71 8 0.0 0.0 0.00 0.00 0.00 89 1012.7
20260906060137 71 81 0.0 0.0 0.00 0.00 0.00 89 1012.4
20260906055632 71 81 0.0 0.0 0.00 0.00 0.00 89 1012.8
20260906055127 71 81 0.0 0.0 0.00 0.00 0.00 89 1012.7
20260906054621 71 81 0.0 0.0 0.00 0.00 0.00 89 1012.4
20260906054117 71 81 0.0 0.0 0.00 0.00 0.00 89 1012.6
20260906053614 71 81 0.0 0.0 0.00 0.00 0.00 89 1012.8
20260906053108 71 81 0.0 0.0 0.00 0.00 0.00 89 1012.8
20260906052604 71 81 0.0 0.0 0.00 0.00 0.00 89 1012.6
20260906052101 71 81 0.0 0.0 0.00 0.00 0.00 89 1012.9
20260906051556 71 81 0.0 0.0 0.00 0.00 0.00 89 1012.6
20260906051051 71 81 0.0 0.0 0.00 0.00 0.00 89 1012.7
20260906050546 71 81 0.0 0.0 0.00 0.00 0.00 89 1012.8
20260906050042 71 81 0.0 0.0 0.00 0.00 0.00 89 1012.7
20260906045540 71 81 0.0 0.0 0.00 0.00 0.00 89 1013.1
20260906045036 71 81 0.0 0.0 0.00 0.00 0.00 89 1013.4
20260906044531 71 81 0.0 0.0 0.00 0.00 0.00 89 1013.2
20260906044026 71 81 0.0 0.0 0.00 0.00 0.00 89 1013.3
20260906043522 71 81 0.0 0.0 0.00 0.00 0.00 89 1013.3
20260906043018 71 81 0.0 0.0 0.00 0.00 0.00 89 1013.1
20260906042516 71 81 0.0 0.0 0.00 0.00 0.00 89 1013.2
20260906042011 71 81 0.0 0.0 0.00 0.00 0.00 89 1013.2
20260906041508 71 188 0.0 0.0 0.00 0.00 0.00 88 1013.3
20260906041007 71 188 0.0 0.0 0.00 0.00 0.00 88 1013.0
20260906040503 71 188 0.0 0.0 0.00 0.00 0.00 88 1013.1
20260906035957 71 188 0.0 0.0 0.00 0.01 0.01 88 1013.3
20260906035453 72 188 0.0 0.0 0.00 0.01 0.01 88 1013.2
20260906034949 72 188 0.0 0.0 0.00 0.01 0.01 88 1013.2
20260906034449 72 188 0.0 0.0 0.00 0.01 0.01 88 1013.3
20260906033944 72 188 0.0 0.0 0.00 0.01 0.01 88 1013.4
20260906033438 72 188 0.0 0.0 0.00 0.01 0.01 88 1013.2
20260906032928 72 188 0.0 0.0 0.00 0.01 0.01 88 1013.3
20260906032425 72 188 0.0 0.0 0.00 0.01 0.01 88 1013.4
20260906031924 72 188 0.0 0.0 0.00 0.01 0.01 88 1013.6
20260906031420 72 188 0.0 0.0 0.00 0.01 0.01 88 1013.4
20260906030915 72 261 0.0 0.0 0.00 0.01 0.01 88 1013.2
20260906030410 72 261 0.0 0.0 0.00 0.01 0.01 88 1012.9
20260906025905 72 105 0.0 0.0 0.00 0.01 0.01 88 1013.3
20260906025405 72 90 0.0 0.0 0.00 0.01 0.01 88 1013.2
20260906024904 72 90 0.0 0.0 0.00 0.01 0.01 88 1013.1
20260906024403 72 90 0.0 0.0 0.00 0.01 0.01 88 1013.0
20260906023859 72 90 0.0 0.0 0.00 0.01 0.01 88 1013.2
20260906023355 72 90 0.0 0.0 0.00 0.01 0.01 88 1013.1
20260906022854 72 90 0.0 0.0 0.00 0.01 0.01 88 1013.1
20260906022349 72 90 0.0 0.0 0.00 0.01 0.01 88 1012.9
20260906021845 73 90 0.0 0.0 0.00 0.01 0.01 88 1013.0
20260906021344 72 355 0.0 1.7 0.00 0.01 0.01 88 1012.9
20260906020839 72 320 1.7 2.6 0.00 0.01 0.01 88 1012.9
20260906020338 72 71 2.6 2.6 0.00 0.01 0.01 87 1012.7
20260906015834 72 55 1.7 2.6 0.00 0.01 0.01 87 1012.8
20260906015333 72 8 0.0 0.0 0.00 0.01 0.01 87 1012.4
20260906014833 72 8 0.0 0.0 0.00 0.01 0.01 87 1012.7
20260906014327 72 8 0.0 0.0 0.00 0.01 0.01 87 1012.7
20260906013824 72 8 0.0 0.0 0.00 0.01 0.01 87 1012.6
20260906013319 72 8 0.0 0.0 0.00 0.01 0.01 87 1012.4
20260906012815 73 15 0.0 0.0 0.00 0.01 0.01 87 1012.5
20260906012315 73 15 0.0 0.0 0.00 0.01 0.01 87 1012.5
20260906011810 73 15 0.0 0.0 0.00 0.01 0.01 87 1012.2
20260906011310 73 15 0.0 0.0 0.00 0.01 0.01 87 1012.4
20260906010806 73 15 0.0 0.0 0.00 0.01 0.01 87 1012.6
20260906010302 73 15 0.0 0.0 0.00 0.01 0.01 87 1012.4
20260906005756 73 15 0.0 0.0 0.00 0.01 0.01 86 1012.3
20260906005255 73 15 0.0 0.0 0.00 0.01 0.01 86 1012.2
20260906004755 73 15 0.0 0.0 0.00 0.01 0.01 86 1012.4
20260906004250 73 15 0.0 0.0 0.00 0.01 0.01 86 1012.3
20260906003750 74 15 0.0 0.0 0.00 0.01 0.01 86 1012.0
20260906003245 74 15 0.0 0.0 0.00 0.01 0.01 86 1012.2
20260906002741 74 8 0.0 0.0 0.00 0.01 0.01 86 1012.4
20260906002240 74 8 0.0 0.0 0.00 0.01 0.01 86 1012.2
20260906001736 74 8 0.0 0.9 0.00 0.01 0.01 86 1012.0
20260906001231 75 0 0.0 0.0 0.00 0.01 0.01 86 1011.9
20260906000727 75 0 0.0 0.0 0.00 0.01 0.01 86 1012.2
20260906000226 75 0 0.0 0.0 0.00 0.01 0.01 85 1012.0
20260905235721 75 8 0.0 0.0 0.00 0.01 0.01 86 1012.1
20260905235215 76 81 0.0 0.0 0.00 0.01 0.01 85 1011.7
20260905234711 76 81 0.0 0.0 0.00 0.01 0.01 85 1011.8
20260905234206 76 81 0.0 0.0 0.00 0.01 0.01 85 1011.7
20260905233702 76 81 0.0 0.0 0.00 0.01 0.01 85 1011.7
20260905233201 76 81 0.0 0.0 0.00 0.01 0.01 85 1011.5
20260905232656 76 81 0.0 0.0 0.00 0.01 0.01 85 1011.7
20260905232151 77 81 0.0 0.0 0.00 0.01 0.01 85 1011.7
20260905231647 77 81 0.0 0.0 0.00 0.01 0.01 85 1011.7
20260905231143 77 90 0.0 0.0 0.00 0.01 0.01 85 1011.3
20260905230638 77 7 0.0 0.9 0.00 0.01 0.01 85 1011.6
20260905230131 77 90 0.0 0.0 0.00 0.01 0.01 85 1011.3
20260905225630 77 90 0.0 0.0 0.00 0.01 0.01 85 1011.4
20260905225126 77 90 0.0 0.0 0.00 0.01 0.01 85 1011.2
20260905224625 77 303 0.0 0.0 0.00 0.01 0.01 85 1011.4
20260905224125 77 0 0.0 0.0 0.00 0.01 0.01 85 1011.4
20260905223622 78 8 0.0 0.9 0.00 0.01 0.01 85 1011.3
20260905223118 78 90 0.0 0.0 0.00 0.01 0.01 85 1011.6
20260905222619 78 90 0.0 0.0 0.00 0.01 0.01 85 1011.2
20260905222113 78 90 0.0 0.0 0.00 0.01 0.01 85 1011.6
20260905221609 78 11 0.0 0.0 0.00 0.01 0.01 85 1011.7
20260905221106 78 81 0.0 0.9 0.00 0.01 0.01 85 1011.7
20260905220601 78 99 0.9 0.9 0.00 0.01 0.01 85 1011.8
20260905220057 78 90 0.0 0.0 0.00 0.01 0.01 85 1011.9
20260905215556 78 114 0.0 1.7 0.00 0.01 0.01 85 1012.1
20260905215052 78 35 0.0 1.7 0.00 0.01 0.01 85 1011.9
20260905214548 78 341 0.0 2.6 0.00 0.01 0.01 85 1011.8
20260905214043 78 285 0.0 0.9 0.00 0.01 0.01 85 1011.9
20260905213538 78 339 0.0 1.7 0.00 0.01 0.01 84 1012.1
20260905213033 79 254 0.0 0.9 0.00 0.01 0.01 85 1012.0
20260905212528 79 325 0.0 3.5 0.00 0.01 0.01 85 1012.0
20260905212028 79 270 0.0 1.7 0.00 0.01 0.01 85 1011.7
20260905211523 78 206 1.7 2.6 0.00 0.01 0.01 86 1011.7
20260905211019 77 90 0.0 4.3 0.00 0.01 0.01 85 1012.1
20260905210515 77 270 0.9 1.7 0.00 0.01 0.01 85 1012.2
20260905210014 76 191 1.7 1.7 0.00 0.01 0.01 85 1012.4
20260905205508 76 180 0.0 0.9 0.00 0.01 0.01 85 1012.3
20260905205007 76 160 0.0 1.7 0.00 0.01 0.01 85 1012.2
20260905204503 75 0 0.0 0.0 0.00 0.01 0.01 85 1012.0
20260905204003 75 0 0.0 0.0 0.00 0.01 0.01 85 1011.9
20260905203458 75 0 0.0 0.0 0.00 0.01 0.01 85 1011.8
20260905202953 75 0 0.0 1.7 0.00 0.01 0.01 85 1012.0
20260905202448 75 5 0.0 0.9 0.00 0.01 0.01 85 1011.8
20260905201944 74 8 0.0 0.0 0.00 0.01 0.01 84 1011.8
20260905201439 74 352 0.0 0.0 0.00 0.01 0.01 84 1012.1
20260905200938 74 175 0.0 0.0 0.00 0.01 0.01 84 1012.5
20260905200435 74 194 0.9 2.6 0.00 0.01 0.01 83 1012.4
20260905195933 73 12 0.0 0.9 0.00 0.01 0.01 83 1012.4
20260905195428 73 320 0.0 0.0 0.00 0.01 0.01 83 1012.1
20260905194924 73 279 0.0 0.0 0.00 0.01 0.01 83 1011.8
20260905194423 73 345 0.0 0.9 0.00 0.01 0.01 81 1011.5
20260905193923 73 352 0.0 0.9 0.00 0.01 0.01 81 1011.6
20260905193418 73 23 0.0 0.0 0.00 0.01 0.01 80 1011.7
20260905192913 73 180 0.0 0.0 0.00 0.01 0.01 80 1011.5
20260905192409 74 188 0.0 2.6 0.00 0.01 0.01 80 1011.6
20260905191909 74 81 0.0 0.0 0.00 0.01 0.01 79 1011.7
20260905191408 74 162 0.0 1.7 0.00 0.01 0.01 79 1011.6
20260905190902 74 90 0.0 0.9 0.00 0.01 0.01 78 1011.8
20260905190354 74 74 0.0 0.9 0.00 0.01 0.01 77 1011.9
20260905185853 75 83 0.0 1.7 0.00 0.01 0.01 75 1012.0
20260905185349 75 165 0.0 1.7 0.00 0.01 0.01 76 1012.4
20260905184848 76 119 0.0 2.6 0.00 0.01 0.01 76 1012.8
20260905184347 77 275 1.7 2.6 0.07 0.01 0.01 76 1012.8
20260905183845 79 270 0.0 1.7 0.07 0.01 0.01 69 1012.8
20260905183341 80 97 0.0 2.6 0.00 0.00 0.00 67 1013.0
20260905182836 80 346 2.6 2.6 0.00 0.00 0.00 66 1012.8
20260905182335 81 75 2.6 5.2 0.00 0.00 0.00 63 1012.9
20260905181831 83 131 2.6 5.2 0.00 0.00 0.00 61 1012.5
20260905181330 86 313 2.6 4.3 0.00 0.00 0.00 58 1012.8
20260905180830 88 219 0.0 3.5 0.00 0.00 0.00 58 1012.9
20260905180325 90 3 2.6 2.6 0.00 0.00 0.00 66 1012.2
20260905175819 91 300 0.0 0.9 0.00 0.00 0.00 66 1012.2
20260905175314 91 270 0.0 0.0 0.00 0.00 0.00 65 1011.8
20260905174809 92 270 0.0 0.9 0.00 0.00 0.00 64 1011.9
20260905174305 92 294 0.0 1.7 0.00 0.00 0.00 63 1012.5
20260905173801 92 331 0.9 2.6 0.00 0.00 0.00 62 1012.3
20260905173257 92 0 0.0 0.0 0.00 0.00 0.00 66 1012.3
20260905172756 92 114 0.0 0.0 0.00 0.00 0.00 66 1012.4
20260905172254 92 279 0.0 0.9 0.00 0.00 0.00 63 1012.3
20260905171751 91 270 0.0 1.7 0.00 0.00 0.00 64 1012.8
20260905171248 91 246 0.0 1.7 0.00 0.00 0.00 65 1013.0
20260905170743 91 270 0.0 0.9 0.00 0.00 0.00 68 1013.2
20260905170239 91 108 4.3 4.3 0.00 0.00 0.00 69 1013.2
20260905165738 90 345 0.0 0.0 0.00 0.00 0.00 68 1013.2
20260905165234 91 20 0.0 0.9 0.00 0.00 0.00 67 1013.2
20260905164733 91 0 0.0 1.7 0.00 0.00 0.00 71 1013.3
20260905164228 92 178 0.0 2.6 0.00 0.00 0.00 72 1013.4
20260905163725 92 331 0.0 0.9 0.00 0.00 0.00 71 1013.3
20260905163220 92 192 1.7 2.6 0.00 0.00 0.00 71 1013.3
20260905162717 91 240 0.9 3.5 0.00 0.00 0.00 73 1013.4
20260905162216 91 323 1.7 1.7 0.00 0.00 0.00 72 1013.3
20260905161711 91 220 0.0 1.7 0.00 0.00 0.00 75 1013.6
20260905161209 91 98 0.0 0.9 0.00 0.00 0.00 75 1013.7
20260905160708 90 30 0.0 2.6 0.00 0.00 0.00 77 1013.4
20260905160202 90 0 0.9 3.5 0.00 0.00 0.00 77 1013.5
20260905155656 90 270 0.0 1.7 0.00 0.00 0.00 77 1013.6
20260905155155 90 270 0.0 1.7 0.00 0.00 0.00 80 1013.6
20260905154649 90 8 0.0 0.9 0.00 0.00 0.00 81 1013.7
20260905154145 90 251 0.0 2.6 0.00 0.00 0.00 82 1013.7
20260905153641 89 206 3.5 4.3 0.00 0.00 0.00 84 1013.9
20260905153137 88 0 0.9 0.9 0.00 0.00 0.00 85 1013.9
20260905152631 88 185 0.0 0.0 0.00 0.00 0.00 85 1013.7
20260905152126 87 12 0.0 2.6 0.00 0.00 0.00 85 1014.1
20260905151620 87 294 0.0 2.6 0.00 0.00 0.00 86 1014.0
20260905151110 86 279 0.0 0.0 0.00 0.00 0.00 87 1013.9
20260905150606 86 26 0.9 1.7 0.00 0.00 0.00 87 1014.1
20260905145556 86 10 1.7 1.7 0.00 0.00 0.00 87 1013.9
20260905145055 86 286 0.0 2.6 0.00 0.00 0.00 88 1014.1
20260905144550 85 270 0.0 0.9 0.00 0.00 0.00 89 1014.3
20260905144044 84 206 0.0 1.7 0.00 0.00 0.00 90 1013.8
20260905143543 83 243 0.0 2.6 0.00 0.00 0.00 90 1014.1
20260905143039 82 5 1.7 2.6 0.00 0.00 0.00 90 1013.9
20260905142538 80 99 0.0 0.0 0.00 0.00 0.00 91 1014.0
20260905142032 79 74 0.0 0.9 0.00 0.00 0.00 91 1013.7
20260905141527 78 173 0.0 1.7 0.00 0.00 0.00 90 1013.9
20260905141024 78 172 0.0 2.6 0.00 0.00 0.00 90 1013.9
20260905140524 77 90 0.0 1.7 0.00 0.00 0.00 90 1013.8
20260905140022 77 36 0.0 1.7 0.00 0.00 0.00 90 1014.1
20260905135519 76 23 0.0 1.7 0.00 0.00 0.00 91 1014.0
20260905135013 76 74 0.9 0.9 0.00 0.00 0.00 90 1013.9
20260905134508 75 106 0.9 1.7 0.00 0.00 0.00 90 1013.9
20260905134006 75 114 0.0 0.0 0.00 0.00 0.00 90 1013.8
20260905133456 75 66 0.0 1.7 0.00 0.00 0.00 91 1013.8
20260905132955 74 83 0.9 1.7 0.00 0.00 0.00 91 1013.9
20260905132450 74 112 0.0 1.7 0.00 0.00 0.00 91 1014.0
20260905131945 74 106 0.0 0.0 0.00 0.00 0.00 91 1014.0
20260905131441 74 97 0.0 0.9 0.00 0.00 0.00 91 1014.0
20260905130936 73 49 0.0 1.7 0.00 0.00 0.00 91 1014.0
20260905130435 73 90 0.0 0.9 0.00 0.00 0.00 91 1014.0
20260905125935 73 79 1.7 1.7 0.00 0.00 0.00 91 1013.8
20260905125430 73 106 0.0 0.9 0.00 0.00 0.00 91 1014.1
20260905124926 73 90 0.0 0.9 0.00 0.00 0.00 91 1014.1
20260905124422 73 99 0.0 0.9 0.00 0.00 0.00 91 1014.3
20260905123922 72 99 0.0 1.7 0.00 0.00 0.00 91 1014.0
20260905123419 72 180 0.0 0.9 0.00 0.00 0.00 91 1014.3
20260905122914 72 99 0.0 0.0 0.00 0.00 0.00 91 1014.0
20260905122413 72 98 0.0 0.0 0.00 0.00 0.00 91 1014.3
20260905121909 71 98 0.0 0.0 0.00 0.00 0.00 91 1014.3
20260905121405 71 98 0.0 0.9 0.00 0.00 0.00 90 1014.3
20260905120904 71 90 0.0 0.0 0.00 0.00 0.00 90 1014.3
20260905120404 71 90 0.0 0.0 0.00 0.00 0.00 90 1014.1
20260905115859 71 90 0.0 0.0 0.00 0.00 0.00 90 1013.8
20260905115357 71 90 0.0 0.0 0.00 0.00 0.00 90 1014.3
20260905114847 70 81 0.0 0.0 0.00 0.00 0.00 90 1014.1
20260905114346 70 81 0.0 0.0 0.00 0.00 0.00 90 1013.9
20260905113846 70 81 0.0 0.0 0.00 0.00 0.00 90 1013.9
20260905113341 70 81 0.0 0.0 0.00 0.00 0.00 90 1013.8
20260905112836 70 99 0.0 0.0 0.00 0.00 0.00 90 1013.6
20260905112331 70 99 0.0 1.7 0.00 0.00 0.00 90 1013.8